VAR022 SEQM-SKPS

Flight info

Callsign VAR022
Flight time 1h 8m
Altitude 9500
Route TABACUNDO LAGOSANPABLO SEIB ELANGEL CUMBAL TUQUERRES NARINO
Aircraft C172/L-SFG/C

Departure

Time 2026-04-28 19:07
Airport Mariscal Sucre International Airport (SEQM)

Arrival

Time 2026-04-28 20:15
Airport Antonio Nariño Airport (SKPS)
Time Latitude Longitude Altitude Speed Heading
2026-04-28 18:46 -0.13695 -78.35644 7877 ft 0 kts 269°
2026-04-28 19:00 -0.13701 -78.35668 7875 ft 7 kts 229°
2026-04-28 19:00 -0.13739 -78.35682 7877 ft 4 kts 184°
2026-04-28 19:01 -0.13746 -78.35683 7877 ft 0 kts 183°
2026-04-28 19:01 -0.13754 -78.35683 7878 ft 4 kts 179°
2026-04-28 19:01 -0.13769 -78.35639 7882 ft 11 kts 111°
2026-04-28 19:01 -0.13804 -78.35558 7889 ft 17 kts 168°
2026-04-28 19:02 -0.13950 -78.35549 7893 ft 15 kts 176°
2026-04-28 19:02 -0.14014 -78.35546 7896 ft 7 kts 175°
2026-04-28 19:02 -0.14062 -78.35543 7898 ft 7 kts 177°
2026-04-28 19:02 -0.14117 -78.35540 7902 ft 9 kts 180°
2026-04-28 19:03 -0.14195 -78.35538 7905 ft 13 kts 176°
2026-04-28 19:03 -0.14249 -78.35493 7907 ft 0 kts 103°
2026-04-28 19:04 -0.14252 -78.35429 7907 ft 17 kts 85°
2026-04-28 19:04 -0.14186 -78.35371 7903 ft 0 kts 353°
2026-04-28 19:04 -0.14154 -78.35371 7887 ft 14 kts 356°
2026-04-28 19:05 -0.13952 -78.35377 7896 ft 43 kts 357°
2026-04-28 19:05 -0.13570 -78.35396 7887 ft 66 kts 357°
2026-04-28 19:05 -0.13076 -78.35468 7929 ft 75 kts 349°
2026-04-28 19:05 -0.12546 -78.35587 8002 ft 79 kts 354°
2026-04-28 19:06 -0.11997 -78.35632 8138 ft 79 kts 359°
2026-04-28 19:06 -0.11614 -78.35613 8117 ft 89 kts
2026-04-28 19:06 -0.10718 -78.35577 8143 ft 96 kts
2026-04-28 19:06 -0.10055 -78.35500 8319 ft 97 kts
2026-04-28 19:07 -0.09417 -78.35447 8462 ft 87 kts
2026-04-28 19:07 -0.08811 -78.35380 8605 ft 86 kts
2026-04-28 19:07 -0.08327 -78.35068 8753 ft 83 kts 34°
2026-04-28 19:07 -0.07898 -78.34712 8845 ft 78 kts 34°
2026-04-28 19:08 -0.07462 -78.34342 8969 ft 90 kts 33°
2026-04-28 19:08 -0.07004 -78.33845 9087 ft 100 kts 43°
2026-04-28 19:08 -0.06583 -78.33272 9193 ft 99 kts 48°
2026-04-28 19:08 -0.06157 -78.32755 9293 ft 95 kts 46°
2026-04-28 19:09 -0.05741 -78.32227 9478 ft 103 kts 47°
2026-04-28 19:09 -0.05246 -78.31616 9586 ft 114 kts 46°
2026-04-28 19:09 -0.04723 -78.30984 9734 ft 125 kts 43°
2026-04-28 19:09 -0.04158 -78.30291 9831 ft 131 kts 47°
2026-04-28 19:10 -0.03569 -78.29596 9916 ft 127 kts 46°
2026-04-28 19:10 -0.03007 -78.28930 9971 ft 127 kts 49°
2026-04-28 19:10 -0.02441 -78.28262 9979 ft 124 kts 46°
2026-04-28 19:10 -0.01912 -78.27639 10045 ft 112 kts 42°
2026-04-28 19:11 -0.01321 -78.27144 10126 ft 110 kts 35°
2026-04-28 19:11 -0.00710 -78.26654 10177 ft 114 kts 37°
2026-04-28 19:11 -0.00076 -78.26147 10235 ft 119 kts 36°
2026-04-28 19:11 0.00563 -78.25651 10292 ft 116 kts 36°
2026-04-28 19:12 0.01189 -78.25179 10364 ft 111 kts 34°
2026-04-28 19:12 0.01808 -78.24709 10426 ft 112 kts 35°
2026-04-28 19:12 0.02432 -78.24256 10481 ft 109 kts 31°
2026-04-28 19:12 0.03069 -78.23855 10544 ft 107 kts 30°
2026-04-28 19:13 0.03694 -78.23461 10602 ft 105 kts 31°
2026-04-28 19:13 0.04307 -78.23080 10665 ft 103 kts 30°
2026-04-28 19:13 0.04937 -78.22743 10719 ft 103 kts 27°
2026-04-28 19:13 0.05582 -78.22501 10783 ft 101 kts
2026-04-28 19:14 0.06280 -78.22501 10846 ft 101 kts
2026-04-28 19:14 0.06985 -78.22480 10856 ft 101 kts 12°
2026-04-28 19:14 0.07661 -78.22316 10922 ft 99 kts 15°
2026-04-28 19:14 0.08336 -78.22148 10983 ft 100 kts 16°
2026-04-28 19:15 0.09017 -78.21986 11047 ft 100 kts 15°
2026-04-28 19:15 0.09466 -78.21886 11090 ft 101 kts 15°
2026-04-28 19:15 0.10311 -78.21551 11180 ft 98 kts 35°
2026-04-28 19:15 0.10508 -78.21429 11200 ft 98 kts 34°
2026-04-28 19:16 0.11555 -78.20922 11305 ft 102 kts 27°
2026-04-28 19:16 0.11991 -78.20748 11350 ft 99 kts 25°
2026-04-28 19:16 0.12680 -78.20675 11408 ft 103 kts 355°
2026-04-28 19:16 0.13394 -78.20799 11451 ft 106 kts 352°
2026-04-28 19:17 0.14115 -78.20978 11501 ft 108 kts 349°
2026-04-28 19:17 0.14846 -78.21153 11550 ft 107 kts 350°
2026-04-28 19:17 0.15575 -78.21326 11587 ft 107 kts 352°
2026-04-28 19:17 0.16290 -78.21498 11625 ft 106 kts 349°
2026-04-28 19:18 0.16998 -78.21671 11667 ft 106 kts 351°
2026-04-28 19:18 0.17716 -78.21849 11703 ft 106 kts 350°
2026-04-28 19:18 0.18431 -78.22025 11742 ft 106 kts 351°
2026-04-28 19:18 0.19150 -78.22204 11788 ft 107 kts 353°
2026-04-28 19:19 0.19884 -78.22385 11830 ft 108 kts 351°
2026-04-28 19:19 0.20603 -78.22576 11867 ft 106 kts 351°
2026-04-28 19:19 0.21311 -78.22769 11907 ft 105 kts 353°
2026-04-28 19:19 0.21997 -78.22693 11951 ft 99 kts 19°
2026-04-28 19:20 0.22676 -78.22585 11999 ft 100 kts 13°
2026-04-28 19:20 0.23387 -78.22529 12057 ft 105 kts 12°
2026-04-28 19:20 0.24110 -78.22469 12114 ft 103 kts 11°
2026-04-28 19:20 0.24840 -78.22409 12117 ft 108 kts 11°
2026-04-28 19:21 0.25601 -78.22267 12130 ft 115 kts 28°
2026-04-28 19:21 0.26320 -78.21921 12149 ft 121 kts 31°
2026-04-28 19:21 0.27080 -78.21540 12126 ft 119 kts 32°
2026-04-28 19:21 0.27802 -78.21151 12126 ft 117 kts 41°
2026-04-28 19:22 0.28417 -78.20620 12120 ft 115 kts 45°
2026-04-28 19:22 0.28818 -78.20286 12113 ft 112 kts 42°
2026-04-28 19:22 0.29616 -78.19626 12107 ft 113 kts 43°
2026-04-28 19:22 0.30250 -78.19126 12127 ft 120 kts 43°
2026-04-28 19:23 0.30896 -78.18605 12121 ft 119 kts 44°
2026-04-28 19:23 0.31540 -78.18105 12116 ft 116 kts 43°
2026-04-28 19:23 0.32166 -78.17618 12118 ft 113 kts 44°
2026-04-28 19:23 0.32785 -78.17146 12119 ft 111 kts 41°
2026-04-28 19:24 0.33377 -78.16664 12116 ft 111 kts 51°
2026-04-28 19:24 0.33906 -78.16110 12119 ft 110 kts 53°
2026-04-28 19:24 0.34412 -78.15533 12122 ft 111 kts 54°
2026-04-28 19:24 0.34926 -78.14953 12119 ft 111 kts 53°
2026-04-28 19:25 0.35427 -78.14385 12119 ft 109 kts 53°
2026-04-28 19:25 0.35924 -78.13833 12129 ft 107 kts 54°
2026-04-28 19:25 0.36420 -78.13267 12133 ft 110 kts 53°
2026-04-28 19:25 0.36926 -78.12695 12136 ft 110 kts 52°
2026-04-28 19:26 0.37435 -78.12116 12161 ft 109 kts 53°
2026-04-28 19:26 0.37935 -78.11556 12208 ft 107 kts 56°
2026-04-28 19:26 0.38417 -78.11018 12251 ft 102 kts 54°
2026-04-28 19:26 0.38885 -78.10500 12300 ft 101 kts 53°
2026-04-28 19:27 0.39360 -78.09982 12339 ft 101 kts 52°
2026-04-28 19:27 0.39821 -78.09472 12379 ft 96 kts 52°
2026-04-28 19:27 0.40264 -78.08983 12426 ft 94 kts 54°
2026-04-28 19:27 0.40718 -78.08488 12465 ft 94 kts 54°
2026-04-28 19:28 0.41166 -78.08024 12512 ft 94 kts 49°
2026-04-28 19:28 0.41751 -78.07715 12552 ft 97 kts 34°
2026-04-28 19:28 0.42346 -78.07422 12596 ft 94 kts 35°
2026-04-28 19:28 0.42942 -78.07132 12633 ft 93 kts 33°
2026-04-28 19:29 0.43504 -78.06861 12675 ft 90 kts 34°
2026-04-28 19:29 0.43881 -78.06679 12699 ft 87 kts 33°
2026-04-28 19:29 0.44608 -78.06323 12737 ft 90 kts 33°
2026-04-28 19:29 0.45174 -78.06048 12760 ft 91 kts 35°
2026-04-28 19:30 0.45743 -78.05769 12792 ft 92 kts 32°
2026-04-28 19:30 0.46320 -78.05487 12817 ft 91 kts 36°
2026-04-28 19:30 0.46885 -78.05209 12852 ft 92 kts 34°
2026-04-28 19:30 0.47462 -78.04932 12870 ft 91 kts 33°
2026-04-28 19:31 0.48041 -78.04657 12900 ft 93 kts 34°
2026-04-28 19:31 0.48624 -78.04373 12930 ft 94 kts 36°
2026-04-28 19:31 0.49211 -78.04086 12958 ft 95 kts 35°
2026-04-28 19:31 0.49816 -78.03793 12972 ft 98 kts 36°
2026-04-28 19:32 0.50411 -78.03445 12972 ft 100 kts 41°
2026-04-28 19:32 0.50994 -78.03054 12974 ft 102 kts 40°
2026-04-28 19:32 0.51580 -78.02659 12970 ft 99 kts 40°
2026-04-28 19:32 0.52146 -78.02270 12971 ft 99 kts 43°
2026-04-28 19:33 0.52675 -78.01916 12956 ft 87 kts 42°
2026-04-28 19:33 0.53181 -78.01580 12956 ft 89 kts 40°
2026-04-28 19:33 0.53706 -78.01232 12958 ft 92 kts 40°
2026-04-28 19:33 0.54225 -78.00878 12963 ft 90 kts 42°
2026-04-28 19:34 0.54752 -78.00534 12964 ft 91 kts 41°
2026-04-28 19:34 0.55285 -78.00187 12969 ft 91 kts 42°
2026-04-28 19:34 0.55815 -77.99840 12979 ft 92 kts 43°
2026-04-28 19:34 0.56360 -77.99475 12985 ft 96 kts 42°
2026-04-28 19:35 0.56926 -77.99100 12984 ft 99 kts 42°
2026-04-28 19:35 0.57508 -77.98717 12981 ft 101 kts 40°
2026-04-28 19:35 0.58099 -77.98313 12990 ft 105 kts 39°
2026-04-28 19:35 0.58712 -77.97885 12998 ft 110 kts 44°
2026-04-28 19:36 0.59340 -77.97444 12997 ft 111 kts 42°
2026-04-28 19:36 0.59976 -77.97007 13014 ft 112 kts 40°
2026-04-28 19:36 0.60616 -77.96569 13025 ft 114 kts 39°
2026-04-28 19:36 0.61269 -77.96111 13028 ft 116 kts 43°
2026-04-28 19:37 0.61933 -77.95654 13044 ft 116 kts 40°
2026-04-28 19:37 0.62381 -77.95338 13048 ft 117 kts 43°
2026-04-28 19:37 0.63267 -77.94717 13060 ft 118 kts 41°
2026-04-28 19:37 0.63937 -77.94236 13063 ft 117 kts 42°
2026-04-28 19:38 0.64594 -77.93774 13062 ft 115 kts 41°
2026-04-28 19:38 0.65230 -77.93313 13073 ft 109 kts 43°
2026-04-28 19:38 0.65834 -77.92882 13086 ft 104 kts 41°
2026-04-28 19:38 0.66415 -77.92470 13103 ft 102 kts 43°
2026-04-28 19:39 0.66982 -77.92075 13125 ft 98 kts 41°
2026-04-28 19:39 0.67526 -77.91682 13140 ft 96 kts 43°
2026-04-28 19:39 0.68073 -77.91325 13147 ft 92 kts 39°
2026-04-28 19:39 0.68590 -77.90957 13143 ft 90 kts 42°
2026-04-28 19:40 0.69084 -77.90633 13152 ft 79 kts 42°
2026-04-28 19:40 0.69562 -77.90340 13167 ft 83 kts 41°
2026-04-28 19:40 0.70047 -77.90025 13139 ft 83 kts 44°
2026-04-28 19:40 0.70554 -77.89738 13169 ft 85 kts 36°
2026-04-28 19:41 0.71088 -77.89479 13154 ft 84 kts 32°
2026-04-28 19:41 0.71601 -77.89196 13160 ft 85 kts 41°
2026-04-28 19:41 0.72133 -77.88932 13232 ft 85 kts 37°
2026-04-28 19:41 0.72648 -77.88650 13408 ft 85 kts 39°
2026-04-28 19:42 0.73164 -77.88359 13538 ft 85 kts 40°
2026-04-28 19:42 0.73679 -77.88075 13567 ft 87 kts 40°
2026-04-28 19:42 0.74236 -77.87745 13587 ft 100 kts 39°
2026-04-28 19:42 0.74641 -77.87508 13606 ft 104 kts 37°
2026-04-28 19:43 0.75491 -77.86994 13610 ft 110 kts 39°
2026-04-28 19:43 0.76153 -77.86616 13610 ft 110 kts 37°
2026-04-28 19:43 0.76826 -77.86221 13603 ft 113 kts 36°
2026-04-28 19:43 0.77504 -77.85814 13593 ft 114 kts 37°
2026-04-28 19:44 0.78186 -77.85407 13582 ft 114 kts 38°
2026-04-28 19:44 0.78860 -77.85002 13560 ft 112 kts 36°
2026-04-28 19:44 0.79531 -77.84603 13535 ft 112 kts 36°
2026-04-28 19:44 0.80205 -77.84206 13515 ft 112 kts 36°
2026-04-28 19:45 0.80872 -77.83815 13492 ft 111 kts 36°
2026-04-28 19:45 0.81545 -77.83417 13470 ft 112 kts 38°
2026-04-28 19:45 0.82214 -77.83019 13451 ft 113 kts 37°
2026-04-28 19:45 0.82897 -77.82618 13434 ft 113 kts 35°
2026-04-28 19:46 0.83557 -77.82226 13440 ft 111 kts 36°
2026-04-28 19:46 0.84234 -77.81832 13438 ft 111 kts 36°
2026-04-28 19:46 0.84901 -77.81448 13436 ft 110 kts 36°
2026-04-28 19:46 0.85567 -77.81070 13438 ft 110 kts 36°
2026-04-28 19:47 0.86220 -77.80686 13441 ft 111 kts 37°
2026-04-28 19:47 0.86888 -77.80295 13440 ft 111 kts 37°
2026-04-28 19:47 0.87550 -77.79906 13442 ft 110 kts 36°
2026-04-28 19:47 0.88213 -77.79512 13438 ft 110 kts 35°
2026-04-28 19:48 0.88873 -77.79121 13437 ft 109 kts 37°
2026-04-28 19:48 0.89528 -77.78741 13435 ft 108 kts 34°
2026-04-28 19:48 0.90169 -77.78361 13424 ft 106 kts 38°
2026-04-28 19:48 0.90812 -77.77987 13423 ft 107 kts 35°
2026-04-28 19:49 0.91453 -77.77612 13370 ft 106 kts 38°
2026-04-28 19:49 0.92085 -77.77246 13375 ft 106 kts 39°
2026-04-28 19:49 0.92723 -77.76873 13370 ft 107 kts 37°
2026-04-28 19:49 0.93367 -77.76497 13370 ft 107 kts 37°
2026-04-28 19:50 0.94616 -77.75706 13373 ft 107 kts 40°
2026-04-28 19:50 0.95241 -77.75309 13374 ft 106 kts 38°
2026-04-28 19:50 0.95866 -77.74908 13372 ft 107 kts 39°
2026-04-28 19:51 0.96497 -77.74503 13370 ft 107 kts 41°
2026-04-28 19:51 0.97072 -77.74040 13374 ft 107 kts 47°
2026-04-28 19:51 0.97639 -77.73552 13375 ft 108 kts 49°
2026-04-28 19:51 0.98203 -77.73066 13374 ft 107 kts 47°
2026-04-28 19:52 0.98764 -77.72577 13372 ft 107 kts 47°
2026-04-28 19:52 0.99329 -77.72093 13371 ft 108 kts 49°
2026-04-28 19:52 0.99900 -77.71603 13369 ft 107 kts 45°
2026-04-28 19:52 1.00467 -77.71119 13366 ft 108 kts 49°
2026-04-28 19:53 1.01038 -77.70642 13360 ft 108 kts 47°
2026-04-28 19:53 1.01606 -77.70149 13357 ft 108 kts 49°
2026-04-28 19:53 1.02180 -77.69660 13355 ft 109 kts 46°
2026-04-28 19:53 1.02733 -77.69158 13350 ft 107 kts 51°
2026-04-28 19:54 1.03284 -77.68649 13343 ft 108 kts 47°
2026-04-28 19:54 1.03824 -77.68142 13340 ft 106 kts 48°
2026-04-28 19:54 1.04370 -77.67632 13319 ft 107 kts 50°
2026-04-28 19:54 1.04909 -77.67125 13319 ft 106 kts 51°
2026-04-28 19:55 1.05452 -77.66621 13278 ft 109 kts 51°
2026-04-28 19:55 1.05991 -77.66119 13307 ft 105 kts 47°
2026-04-28 19:55 1.06524 -77.65621 13307 ft 105 kts 50°
2026-04-28 19:55 1.07037 -77.65113 13305 ft 103 kts 56°
2026-04-28 19:56 1.07490 -77.64555 13300 ft 103 kts 56°
2026-04-28 19:56 1.07948 -77.63995 13300 ft 105 kts 57°
2026-04-28 19:56 1.08412 -77.63425 13302 ft 107 kts 59°
2026-04-28 19:56 1.08891 -77.62848 13304 ft 108 kts 58°
2026-04-28 19:57 1.09379 -77.62272 13299 ft 110 kts 54°
2026-04-28 19:57 1.09881 -77.61695 13291 ft 110 kts 54°
2026-04-28 19:57 1.10379 -77.61121 13283 ft 109 kts 56°
2026-04-28 19:57 1.10877 -77.60554 13278 ft 108 kts 54°
2026-04-28 19:58 1.11372 -77.59987 13273 ft 109 kts 56°
2026-04-28 19:58 1.11861 -77.59410 13267 ft 112 kts 56°
2026-04-28 19:58 1.12371 -77.58824 13253 ft 111 kts 55°
2026-04-28 19:58 1.12875 -77.58234 13258 ft 113 kts 58°
2026-04-28 19:59 1.13384 -77.57637 13250 ft 113 kts 56°
2026-04-28 19:59 1.13894 -77.57042 13247 ft 112 kts 55°
2026-04-28 19:59 1.14406 -77.56454 13241 ft 112 kts 55°
2026-04-28 19:59 1.14919 -77.55866 13229 ft 112 kts 55°
2026-04-28 20:00 1.15430 -77.55278 13227 ft 112 kts 54°
2026-04-28 20:00 1.15968 -77.54714 13212 ft 112 kts 53°
2026-04-28 20:00 1.16514 -77.54161 13206 ft 111 kts 51°
2026-04-28 20:00 1.17050 -77.53604 13199 ft 112 kts 52°
2026-04-28 20:01 1.17602 -77.53048 13175 ft 113 kts 51°
2026-04-28 20:01 1.18143 -77.52501 13174 ft 112 kts 52°
2026-04-28 20:01 1.18692 -77.51940 13175 ft 113 kts 54°
2026-04-28 20:01 1.19248 -77.51378 13177 ft 113 kts 50°
2026-04-28 20:02 1.19813 -77.50804 13089 ft 119 kts 52°
2026-04-28 20:02 1.20394 -77.50209 12995 ft 120 kts 54°
2026-04-28 20:02 1.20936 -77.49562 12876 ft 123 kts 57°
2026-04-28 20:02 1.21489 -77.48907 12758 ft 123 kts 55°
2026-04-28 20:03 1.22069 -77.48259 12646 ft 126 kts 53°
2026-04-28 20:03 1.22652 -77.47603 12524 ft 126 kts 53°
2026-04-28 20:03 1.23215 -77.46959 12400 ft 122 kts 55°
2026-04-28 20:03 1.23789 -77.46319 12277 ft 124 kts 53°
2026-04-28 20:04 1.24362 -77.45663 12134 ft 127 kts 56°
2026-04-28 20:04 1.24941 -77.45009 11991 ft 124 kts 56°
2026-04-28 20:04 1.25328 -77.44583 11877 ft 127 kts 53°
2026-04-28 20:04 1.26077 -77.43656 11645 ft 130 kts 62°
2026-04-28 20:05 1.26594 -77.42891 11435 ft 133 kts 59°
2026-04-28 20:05 1.27103 -77.42114 11264 ft 136 kts 65°
2026-04-28 20:05 1.27502 -77.41263 11057 ft 135 kts 70°
2026-04-28 20:05 1.27762 -77.40676 10912 ft 137 kts 70°
2026-04-28 20:06 1.28143 -77.39799 10718 ft 141 kts 71°
2026-04-28 20:06 1.28545 -77.38899 10508 ft 141 kts 70°
2026-04-28 20:06 1.28977 -77.38021 10294 ft 143 kts 56°
2026-04-28 20:06 1.29750 -77.37372 10034 ft 148 kts 40°
2026-04-28 20:07 1.30567 -77.36761 9715 ft 149 kts 40°
2026-04-28 20:07 1.31118 -77.36339 9483 ft 145 kts 40°
2026-04-28 20:07 1.32183 -77.35563 9063 ft 142 kts 37°
2026-04-28 20:07 1.33003 -77.35011 8744 ft 143 kts 36°
2026-04-28 20:08 1.33831 -77.34455 8436 ft 144 kts 37°
2026-04-28 20:08 1.34660 -77.33893 8128 ft 144 kts 36°
2026-04-28 20:08 1.35442 -77.33339 7867 ft 132 kts 36°
2026-04-28 20:08 1.36166 -77.32802 7589 ft 127 kts 37°
2026-04-28 20:09 1.36853 -77.32264 7333 ft 123 kts 36°
2026-04-28 20:09 1.37522 -77.31721 7105 ft 126 kts 37°
2026-04-28 20:09 1.38204 -77.31176 6989 ft 120 kts 36°
2026-04-28 20:09 1.38833 -77.30704 6971 ft 110 kts 26°
2026-04-28 20:10 1.39563 -77.30575 6987 ft 106 kts
2026-04-28 20:10 1.40275 -77.30499 6961 ft 98 kts
2026-04-28 20:10 1.40910 -77.30433 6931 ft 95 kts
2026-04-28 20:10 1.41575 -77.30362 6708 ft 100 kts
2026-04-28 20:11 1.42284 -77.30305 6549 ft 104 kts
2026-04-28 20:11 1.43023 -77.30310 6372 ft 110 kts 356°
2026-04-28 20:11 1.43784 -77.30398 6247 ft 107 kts 353°
2026-04-28 20:11 1.44472 -77.30449 6213 ft 89 kts
2026-04-28 20:12 1.44983 -77.30209 6119 ft 80 kts 55°
2026-04-28 20:12 1.45216 -77.29752 5781 ft 74 kts 88°
2026-04-28 20:12 1.45228 -77.29279 5722 ft 64 kts 101°
2026-04-28 20:12 1.45115 -77.28868 5743 ft 57 kts 135°
2026-04-28 20:13 1.44842 -77.28596 5730 ft 54 kts 143°
2026-04-28 20:13 1.44542 -77.28284 5721 ft 68 kts 135°
2026-04-28 20:13 1.44171 -77.27938 5735 ft 79 kts 156°
2026-04-28 20:13 1.43622 -77.27886 5839 ft 84 kts 190°
2026-04-28 20:14 1.43061 -77.28070 5917 ft 85 kts 207°
2026-04-28 20:14 1.42519 -77.28334 5909 ft 90 kts 199°
2026-04-28 20:14 1.41877 -77.28493 5937 ft 100 kts 197°
2026-04-28 20:14 1.41205 -77.28685 5889 ft 100 kts 193°
2026-04-28 20:15 1.40543 -77.28861 5870 ft 97 kts 193°
2026-04-28 20:15 1.39925 -77.29016 5886 ft 87 kts 193°
2026-04-28 20:15 1.39515 -77.29140 5909 ft 24 kts 205°
2026-04-28 20:15 1.39497 -77.29126 5909 ft 8 kts
2026-04-28 20:16 1.39514 -77.29077 5906 ft 9 kts 96°
2026-04-28 20:16 1.39543 -77.29041 5903 ft 7 kts 22°
2026-04-28 20:16 1.39550 -77.29017 5903 ft 3 kts 121°
2026-04-28 20:16 1.39543 -77.28997 5903 ft 5 kts 99°
2026-04-28 20:17 1.39542 -77.28990 5903 ft 0 kts 102°